Location: *
(48.6586°N, 34.3247°E)
Time: 21:55:11
(UTC+00:00)

Daily predictions for brighter satellites

Satellite Brightness Start Highest point End
(mag) Time Altitude Azimuth Time Altitude Azimuth Time Altitude Azimuth
Cosmos 2016 Rocket 4.2 15:32:06 10° SSE 15:37:52 47° E 15:43:43 10° NNE
Lacrosse 4 Rocket 1.8 15:35:05 10° S 15:39:06 46° ESE 15:43:14 10° NE
Cosmos 2369 Rocket 3.6 15:36:48 10° SE 15:40:28 18° E 15:44:10 10° ENE
STARLINK-80 3.5 15:37:05 10° WSW 15:40:55 77° NNW 15:44:45 10° ENE
Cosmos 921 Rocket 4.5 15:38:07 10° SE 15:41:17 19° E 15:44:28 10° NE
STARLINK-43 3.9 15:39:33 10° W 15:43:10 51° NNW 15:46:49 10° ENE
CENTAUR R/B 4.2 15:38:01 10° WNW 15:43:43 27° N 15:50:11 10° NE
CZ-2D R/B 3.8 15:42:35 10° SE 15:46:11 37° ENE 15:49:48 10° N
Cosmos 2082 Rocket 3.2 15:41:24 10° NW 15:46:52 52° WSW 15:52:19 10° S
Cosmos 1812 3.6 15:43:41 10° NNE 15:47:03 27° ENE 15:50:23 10° SE
YAOGAN 1 2.7 15:45:30 10° SSE 15:49:42 54° ENE 15:53:57 10° N
ATLAS 3B R/B 4.2 15:45:50 10° WNW 15:51:17 26° NNW 15:56:46 10° NE
SKYMED 2 3.5 15:50:03 10° NNE 15:54:24 72° ESE 15:58:44 10° S
Cosmos 1633 Rocket 3.8 15:54:18 10° SSE 15:58:06 31° E 16:01:56 10° NNE
STARLINK-33 3.5 15:55:50 10° SW 15:58:59 46° SSE 16:01:45 13° ENE
STARLINK-37 4.4 15:56:08 10° SSW 15:59:46 33° SE 16:02:58 13° E
NOSS 8 (A) 4.2 15:57:35 10° SW 16:00:46 84° NW 16:03:48 10° NE
STARLINK-66 3.4 15:57:38 10° SW 16:00:48 48° SSE 16:03:30 13° ENE
STARLINK-36 4.5 15:57:42 10° SSW 16:01:19 33° SE 16:04:25 13° E
Cosmos 1666 Rocket 4.0 15:57:39 10° SSE 16:01:51 41° E 16:06:05 10° NNE
STARLINK-55 3.3 15:58:41 10° SW 16:01:52 50° SSE 16:04:32 14° ENE
FALCON 9 DEB 3.7 15:58:40 10° WNW 16:02:01 45° NNE 16:04:47 14° E
Meteor 1-27 Rocket 3.9 15:56:57 10° N 16:02:18 47° ENE 16:07:41 10° SE
STARLINK-68 4.3 15:59:26 10° SSW 16:03:07 36° SE 16:06:14 13° ENE
STARLINK-28 3.2 16:00:21 10° SW 16:03:33 55° SSE 16:06:11 14° ENE
Cosmos 292 Rocket 3.8 15:59:27 10° SSW 16:04:15 86° ESE 16:09:05 10° NNE
STARLINK-63 4.3 16:01:00 10° SSW 16:04:41 36° SE 16:07:43 14° E
STARLINK-26 3.2 16:01:26 10° WSW 16:04:54 83° NNW 16:07:54 13° ENE
Cosmos 2173 Rocket 4.3 15:59:31 10° SSW 16:05:54 79° W 16:12:19 10° N
STARLINK-35 4.3 16:02:34 10° SSW 16:06:14 35° SE 16:09:11 15° E
STARLINK-29 3.7 16:03:34 10° WNW 16:06:53 44° NNE 16:09:23 16° E
CZ-4 R/B 1.6 16:03:25 10° S 16:07:38 80° WSW 16:11:50 10° NNW
STARLINK-51 4.3 16:04:13 10° SSW 16:07:55 36° SE 16:10:48 15° E
STARLINK-30 4.3 16:05:50 10° SSW 16:09:33 37° SE 16:12:23 16° E
Lacrosse 5 rocket 2.6 16:05:29 10° W 16:09:40 39° NNW 16:13:59 10° NE
STARLINK-75 3.4 16:07:28 10° SW 16:10:49 53° SSE 16:13:18 17° ENE
Cosmos 1939 Rocket 2.9 16:06:53 10° SSE 16:11:00 73° ENE 16:15:09 10° N
STARLINK-72 4.2 16:07:27 10° SSW 16:11:11 38° SE 16:13:58 16° E
STARLINK-50 4.2 16:09:04 10° SSW 16:12:50 39° SE 16:15:34 17° E
STARLINK-59 4.1 16:10:46 10° SW 16:14:34 42° SE 16:17:16 17° E
CSL-04 Rocket 3.7 16:09:13 10° SSE 16:14:46 84° ENE 16:20:18 10° NNW
STARLINK-1023 4.2 16:12:46 10° SSW 16:15:19 24° SE 16:16:32 19° ESE
STARLINK-22 3.5 16:12:22 10° SW 16:15:40 47° SSE 16:17:51 19° ENE
STARLINK-56 4.1 16:12:19 10° SW 16:16:07 41° SE 16:18:43 18° E
STARLINK-52 3.6 16:13:44 10° WNW 16:17:01 45° NNE 16:19:04 20° ENE
STARLINK-41 3.4 16:13:46 10° SW 16:17:06 52° SSE 16:19:16 20° ENE
STARLINK-73 4.1 16:13:59 10° SW 16:17:47 42° SE 16:20:20 19° E
STARLINK-42 3.1 16:15:00 10° SW 16:18:11 58° SSE 16:20:10 21° ENE
ARGOS 4.0 16:14:04 10° ESE 16:18:38 29° ENE 16:23:14 10° N
STARLINK 1040 3.7 16:16:38 10° SSW 16:19:07 28° SE 16:20:05 22° ESE
Cosmos 1238 Rocket 4.2 16:12:52 10° S 16:19:08 84° W 16:25:52 10° N
STARLINK-38 4.0 16:15:37 10° SW 16:19:26 44° SE 16:21:56 19° E
NOSS 3-1 (C) 3.5 16:15:21 10° SSW 16:20:38 50° ESE 16:26:45 10° NE
STARLINK-65 4.0 16:17:13 10° SW 16:21:03 45° SE 16:23:29 20° E
Cosmos 1633 3.3 16:18:03 10° SSW 16:21:35 55° WNW 16:25:09 10° N
Aureole 2 Rocket 3.5 16:19:50 10° SSE 16:21:02 17° SE 16:21:02 17° SE
STARLINK-1014 4.4 16:19:26 10° SSW 16:22:19 26° SE 16:23:30 21° ESE
STARLINK-53 3.9 16:18:55 10° SW 16:22:47 48° SE 16:25:12 21° E
STARLINK-61 3.4 16:19:28 10° SW 16:23:21 73° SSE 16:25:57 20° ENE
STARLINK-1007 4.0 16:20:46 10° SSW 16:23:30 29° SE 16:24:31 23° ESE
Cosmos 1607 4.3 16:18:26 10° NW 16:24:42 70° WSW 16:31:01 10° SSE
Cosmos 2278 Rocket 4.0 16:20:19 10° WSW 16:25:14 30° NW 16:30:11 10° NNE
IRS-1A Rocket 4.4 16:21:01 10° SE 16:26:18 49° ENE 16:31:35 10° N
Cosmos 2242 Rocket 4.3 16:22:37 10° N 16:26:43 33° ENE 16:30:50 10° SE
Resurs 01 Rocket 3.7 16:27:52 12° NE 16:27:52 12° NE 16:28:50 10° NNE
CSL-04 Debris 4.4 16:22:08 10° S 16:27:35 77° WSW 16:33:06 10° NNW
USA 116 3.7 16:24:33 10° NNE 16:28:19 88° ESE 16:32:34 10° SSW
NOAA 11 4.5 16:22:57 10° S 16:28:23 71° WSW 16:33:50 10° NNW
STARLINK-48 3.8 16:25:46 10° W 16:29:38 61° NNW 16:32:06 21° ENE
STARLINK-1010 3.7 16:30:08 10° SSW 16:33:00 34° SE 16:33:42 30° ESE
Cosmos 1777 Rocket 3.9 16:28:36 10° NNW 16:33:56 82° ENE 16:39:13 10° SSE
STARLINK-60 2.9 16:31:55 10° WNW 16:35:14 86° NNE 16:36:41 31° ESE
Cosmos 2227 Rocket 4.3 16:36:23 10° N 16:37:50 11° NNE 16:39:18 10° NE
SJ-11-01 4.3 16:35:37 10° SSE 16:40:13 59° ENE 16:44:49 10° N
STARLINK-58 3.2 16:36:44 10° SW 16:40:16 68° SSE 16:41:38 34° ENE
STARLINK-1008 3.4 16:37:55 10° SW 16:40:55 40° SE 16:41:24 37° ESE
Sich 1 3.7 16:36:50 10° SSW 16:41:04 58° WNW 16:45:17 10° N
Cosmos 1470 Rocket 3.7 16:37:38 10° SSE 16:41:49 48° E 16:46:03 10° NNE
STARLINK-1016 3.4 16:38:58 10° SW 16:41:57 40° SE 16:42:23 38° ESE
STARLINK-62 3.1 16:38:25 10° SW 16:41:58 71° SSE 16:43:16 36° ENE
COSMO-SKYMED 1 4.1 16:38:18 10° N 16:42:22 39° WNW 16:46:24 10° SW
STARLINK-1025 3.4 16:40:04 10° SW 16:43:05 41° SE 16:43:29 39° ESE
STARLINK-34 3.1 16:40:01 10° SW 16:43:33 73° SSE 16:44:47 37° ENE
COSMOS 2487 4.1 16:41:26 10° N 16:43:11 19° NE 16:43:11 19° NE
STARLINK-1017 3.3 16:41:10 10° SW 16:44:10 42° SE 16:44:33 40° SE
Cosmos 44 3.0 16:42:24 10° NNW 16:46:46 64° NE 16:49:02 28° ESE
Cosmos 1862 Rocket 3.4 16:42:27 10° N 16:46:49 82° E 16:51:10 10° SSE
Cosmos 1725 Rocket 4.3 16:41:04 10° SSW 16:47:13 70° W 16:53:26 10° N
STARLINK-1048 3.3 16:44:28 10° SW 16:47:31 45° SSE 16:47:47 43° SE
STARLINK-1029 3.7 16:45:06 10° SSW 16:47:59 35° SE 16:47:59 35° SE
STARLINK-1028 3.2 16:45:28 10° SW 16:48:32 46° SSE 16:48:46 45° SE
STARLINK-1049 3.2 16:45:35 10° SW 16:48:39 46° SSE 16:48:52 45° SE
Cosmos 1943 Rocket 2.1 16:44:09 10° SSW 16:49:42 73° ESE 16:55:15 10° NNE
STARLINK-1021 3.2 16:46:38 10° SW 16:49:43 47° SSE 16:49:55 46° SE
STARLINK-1051 3.2 16:46:45 10° SW 16:49:49 47° SSE 16:50:01 46° SE
STARLINK-1019 3.2 16:47:50 10° SW 16:50:55 48° SSE 16:51:05 47° SE
STARLINK-1012 3.1 16:49:03 10° SW 16:52:09 49° SSE 16:52:16 49° SE
NOSS 2-3 (E) 4.2 16:49:00 10° S 16:52:59 37° ESE 16:53:47 34° E
STARLINK-24 3.4 16:49:50 10° SW 16:53:50 74° SSE 16:55:06 42° ENE
FREGAT/IRIS 4.2 16:55:58 21° N 16:55:58 21° N 16:57:06 10° N
STARLINK-1026 3.1 16:51:27 10° SW 16:54:34 51° SSE 16:54:37 51° SE
ADEOS Rocket 3.6 16:46:59 10° NNE 16:54:45 88° ESE 17:02:31 10° SSW
STARLINK-1013 3.1 16:52:42 10° SW 16:55:49 53° SSE 16:55:49 53° SSE
STARLINK-1009 3.1 16:53:54 10° SW 16:57:00 54° SSE 16:57:00 54° SSE
Cosmos 1464 Rocket 4.4 16:51:55 10° SSE 16:57:47 41° E 17:03:41 10° NNE
STARLINK-1015 3.1 16:55:09 10° SW 16:58:13 55° SSE 16:58:13 55° SSE
SJ-6B 3.0 16:58:41 44° ENE 16:58:41 44° ENE 17:02:06 10° N
Cosmos 2285 Rocket 3.9 16:52:24 10° NNW 16:58:48 77° ENE 17:05:09 10° SSE
HJ-1C 3.9 16:56:27 10° S 16:59:42 58° W 17:03:00 10° NNW
USA 234 3.7 16:58:18 26° ENE 17:01:45 49° NNE 17:08:00 10° WNW
STARLINK-81 3.4 16:58:09 10° WSW 17:02:10 77° SSE 17:03:04 52° E
Cosmos 1703 Rocket 3.8 16:58:45 10° N 17:03:02 46° ENE 17:03:29 44° E
SL-4 R/B 4.4 16:59:41 10° W 17:03:22 23° SW 17:06:52 10° S
STARLINK-54 3.4 17:00:00 10° WSW 17:04:01 83° SSE 17:04:54 53° ENE
STARLINK-77 3.4 17:01:28 10° WSW 17:05:29 80° SSE 17:06:15 57° ENE
SL-27 R/B 3.8 17:03:01 10° NW 17:06:10 37° WSW 17:09:15 10° S
STARLINK-25 3.4 17:03:07 10° WSW 17:07:08 82° SSE 17:07:50 59° ENE
NOSS 2-3 (D) 3.9 17:03:37 10° SSW 17:07:44 45° ESE 17:07:54 45° ESE
H-2A R/B 2.0 17:02:36 10° SSE 17:07:55 76° ENE 17:13:23 10° N
STARLINK-71 3.4 17:04:58 10° WSW 17:08:59 89° SSE 17:09:40 60° ENE
USA 229 DEB 3.6 17:02:47 10° SW 17:09:23 85° NW 17:15:36 14° NE
USA 229 3.6 17:02:54 10° SW 17:09:29 85° NW 17:15:39 14° NE
Cosmos 1340 2.5 17:05:59 10° S 17:09:44 86° E 17:13:32 10° NNE
STARLINK-79 3.4 17:06:24 10° WSW 17:10:26 85° SSE 17:11:01 64° ENE
STARLINK-78 3.4 17:08:04 10° WSW 17:12:07 87° SSE 17:12:37 67° ENE
Ariane Rocket 3.3 17:07:50 10° S 17:12:54 69° WSW 17:18:02 10° NNW
STARLINK-57 3.4 17:09:48 10° WSW 17:13:50 89° NNW 17:14:18 69° ENE
STARLINK-1027 4.4 17:10:34 10° SSW 17:13:59 38° SSE 17:13:59 38° SSE
Cosmos 724 4.2 17:08:58 10° NW 17:14:48 85° SW 17:17:57 29° SSE
STARLINK-64 3.3 17:11:23 10° WSW 17:14:58 70° NNW 17:15:06 69° N
STARLINK-49 3.4 17:11:22 10° WSW 17:15:24 90° N 17:15:47 72° ENE
Cosmos 2034 Rocket 4.3 17:15:42 39° E 17:15:42 39° E 17:21:13 10° NNE
NOSS 3-1 (A) 3.2 17:10:56 10° SSW 17:16:27 75° SE 17:20:14 25° NE
STARLINK-27 3.4 17:13:02 10° WSW 17:17:04 88° NNW 17:17:24 75° ENE
Okean 1-7 3.3 17:13:38 10° N 17:17:11 48° NE 17:17:11 48° NE
Lacrosse 4 Rocket 3.4 17:14:21 10° WSW 17:18:00 27° NW 17:21:43 10° NNE
CZ-2C R/B 3.2 17:13:01 13° SSE 17:18:18 78° ENE 17:24:04 10° NNW
STARLINK-74 3.4 17:14:40 10° WSW 17:18:42 87° NNW 17:18:57 78° NE
Cosmos 921 Rocket 3.8 17:14:45 10° SW 17:19:10 53° WNW 17:23:37 10° NNE
STARLINK-80 4.2 17:15:54 10° WNW 17:19:34 42° N 17:19:45 41° N
STARLINK-39 3.4 17:16:20 10° WSW 17:20:22 85° NNW 17:20:34 80° NE
SL-24 DEB 4.4 17:21:23 51° NE 17:21:23 51° NE 17:25:25 10° N
STARLINK-43 4.1 17:17:59 10° WNW 17:21:22 42° N 17:21:22 42° N
STARLINK-31 3.4 17:18:00 10° WSW 17:22:02 84° NNW 17:22:10 81° NNE
SJ 16-02 2.4 17:18:44 10° N 17:21:43 32° NNE 17:21:43 32° NNE
MOS 1 4.4 17:17:56 10° SSE 17:23:37 78° WSW 17:29:19 10° NNW
Cosmos 2369 Rocket 2.2 17:18:06 10° SSW 17:23:46 81° WNW 17:29:31 10° NNE
STARLINK-69 3.5 17:19:50 10° WSW 17:23:51 79° NNW 17:23:57 78° N
Cosmos 1833 4.2 17:18:57 10° NNW 17:24:46 89° WSW 17:27:21 35° SSE
STARLINK-21 3.5 17:21:19 10° WSW 17:25:21 80° NNW 17:25:21 80° NNW
Cosmos 1346 Rocket 2.8 17:22:58 10° SSW 17:26:58 78° WNW 17:30:58 10° N
STARLINK-45 3.6 17:23:12 10° WSW 17:27:12 75° NNW 17:27:12 75° NNW
STARLINK-70 3.6 17:24:46 10° WSW 17:28:41 75° NW 17:28:41 75° NW
Cosmos 1656 Rocket 3.6 17:23:49 10° S 17:29:11 58° ESE 17:29:17 57° ESE
STARLINK-76 3.6 17:26:18 10° WSW 17:30:08 74° NW 17:30:08 74° NW
STARLINK-23 3.7 17:27:57 10° WSW 17:31:43 71° WNW 17:31:43 71° WNW
Meteor 1-18 Rocket 4.2 17:27:19 10° N 17:33:16 77° ENE 17:35:21 42° SSE
STARLINK-32 3.8 17:29:38 10° WSW 17:33:20 68° WNW 17:33:20 68° WNW
Cosmos 990 Rocket 4.1 17:29:12 10° NNW 17:33:57 56° NE 17:33:57 56° NE
STARLINK-40 3.8 17:31:16 10° WSW 17:34:54 66° WNW 17:34:54 66° WNW
CENTAUR R/B 4.1 17:30:25 10° NW 17:36:50 30° NNE 17:39:28 25° NE
STARLINK-44 3.9 17:32:55 10° WSW 17:36:29 63° WNW 17:36:29 63° WNW
Cosmos 1937 Rocket 4.0 17:31:59 10° NNW 17:36:14 43° NNE 17:36:14 43° NNE
Cosmos 44 Rocket 4.1 17:33:38 10° NNW 17:37:18 38° NNE 17:37:18 38° NNE
STARLINK-37 4.0 17:34:43 10° WSW 17:38:13 60° WNW 17:38:13 60° WNW
SL-08 RB Rocket 3.6 17:39:41 82° NNW 17:39:41 82° NNW 17:44:01 10° NNW
Cosmos 1933 Rocket 4.0 17:35:49 10° SSW 17:40:11 60° WNW 17:44:33 10° N
STARLINK-36 4.1 17:36:15 10° WSW 17:39:40 58° WNW 17:39:40 58° WNW
Cosmos 2263 4.2 17:35:59 10° SSW 17:41:47 81° WNW 17:45:55 20° NNE
NOSS 2-3 (C) 3.7 17:37:31 10° SW 17:41:33 76° SSW 17:41:33 76° SSW
STARLINK-68 4.2 17:38:07 10° WSW 17:41:30 55° WNW 17:41:30 55° WNW
Cosmos 1092 Rocket 4.4 17:36:34 10° N 17:41:46 43° NE 17:41:46 43° NE
STARLINK-63 4.2 17:39:41 10° WSW 17:42:58 53° WNW 17:42:58 53° WNW
ATLAS 3B R/B 4.1 17:39:02 10° NW 17:44:15 23° N 17:46:12 21° NE
STARLINK-35 4.3 17:41:14 10° WSW 17:44:26 51° WNW 17:44:26 51° WNW
STARLINK-51 4.4 17:42:55 10° WSW 17:46:03 49° WNW 17:46:03 49° WNW
STARLINK-30 4.5 17:44:34 10° WSW 17:47:38 47° WNW 17:47:38 47° WNW
SPOT 3 Rocket 3.6 17:48:02 58° S 17:49:04 78° WSW 17:54:18 10° NNW
Lacrosse 5 rocket 3.0 17:45:49 10° WNW 17:49:40 28° N 17:49:40 28° N
MetOp-A 4.0 17:51:57 85° SSE 17:52:08 89° ENE 17:57:32 10° NNW
Meteor 1-20 Rocket 4.3 17:47:14 10° SSW 17:52:42 74° WNW 17:58:15 10° N
ARGOS Delta rocket 4.2 17:56:09 56° WNW 17:56:09 56° WNW 17:59:58 10° NNW
ARGOS 3.9 17:54:51 18° S 17:58:39 50° W 18:03:57 10° NNW
USA 238 DEB 4.4 17:53:49 10° NW 18:00:30 42° NNE 18:00:54 41° NE
USA 238 4.4 17:53:54 10° NW 18:00:35 41° NNE 18:00:59 41° NE
Resurs 01 Rocket 3.3 18:05:26 26° N 18:05:26 26° N 18:07:23 10° NNW
Cosmos 2297 Rocket 3.7 18:00:46 10° NNW 18:03:57 25° NNE 18:03:57 25° NNE
USA 267 3.8 18:10:36 44° S 18:10:36 44° S 18:15:13 10° SW
NOSS 3-1 (C) 4.4 18:06:07 10° WSW 18:11:37 43° NNW 18:14:50 26° NNE
Cosmos 1898 Rocket 4.2 18:13:42 10° NNW 18:17:47 51° WNW 18:17:47 51° WNW
Cosmos 2227 Rocket 3.8 18:18:33 10° NNW 18:21:20 25° N 18:21:20 25° N
Meteor 2-4 Rocket 4.4 18:26:18 10° NNW 18:30:43 52° NNW 18:30:43 52° NNW
Cosmos 1943 Rocket 4.2 18:29:30 10° W 18:34:01 25° NW 18:38:32 10° N
USA 234 3.5 18:45:39 64° WNW 18:45:39 64° WNW 18:51:05 10° NW
NOSS 3-2 (A) 4.4 18:48:14 10° NW 18:53:59 55° N 18:53:59 55° N
SJ 16-02 4.2 18:57:42 10° NW 18:58:44 15° NW 18:58:44 15° NW
BREEZE-M DEB (TANK) 4.3 18:49:00 10° W 19:01:29 56° W 19:01:29 56° W
Cosmos 2369 Rocket 4.5 19:04:38 10° W 19:08:44 20° NW 19:11:56 13° N
CENTAUR R/B 3.8 19:21:22 10° NW 19:26:39 45° NNW 19:26:39 45° NNW
ATLAS 3B R/B 4.3 19:30:13 10° NW 19:33:26 28° NNW 19:33:26 28° NNW
